Volver al catálogo

IRIDIUM 33 DEB

ActivoPO
NORAD 34529·DEBRIS·🇺🇸 United States

Lanzado Sep 14, 1997 desde Baikonur Cosmodrome

Loading…

Próximos Pases (próximas 24 horas)

TLE

ActualizadoSource: Space-Track

Época: Sep 14, 2026, 01:42 UTC

1 34529U 97051HW  26257.07115385  .00000377  00000-0  11137-3 0  9990
2 34529  86.3582 278.0201 0005861  38.8140 321.3479 14.40931767921060

Sigue IRIDIUM 33 DEB en tiempo real con AllMySat

Download on the App Store